[[{"header":{"parameterUnit":"m.s-1","parameterCategory":1,"la1":30.2991,"la2":30.254,"lo1":-89.0895,"lo2":-89.0444,"dy":0.0017,"dx":0.0017,"nx":28,"ny":28,"refTime":"2024-02-04T09:00:00:Z","depth":0,"parameterNumber":2,"parameterNumberName":"U-component_of_WINDS"},"data":[0,0,0,0,0,0,0,0,0,0,0,0,0,0,0,0,0,0,0,0,0,0,0,0,0,0,0,0,0,0,0,0,0,0,0,0,0,0,0,0,0,0,0,0,0,0,0,0,0,0,0,0,0,0,0,0,0,0,0.1675,0.1675,0,0.1644,0.1643,0.1643,0.166,0.1661,0.1662,0.1663,0.1627,0.1626,0.1624,0,0,0,0,0,0,0,0,0,0,0,0,0,0.1748,0.1747,0.1675,0.1675,0.1675,0.1644,0.1643,0.1643,0.166,0.1661,0.1662,0.1663,0.1628,0.1626,0.1624,0,0,0,0,0,0,0,0,0,0,0,0,0,0.1716,0.1746,0.1675,0.1679,0.168,0.1644,0.1643,0.1643,0.166,0.1661,0.1662,0.1664,0.1629,0.1626,0.1623,0.1581,0,0,0.1615,0.1614,0,0,0,0,0,0,0,0,0.1718,0.1714,0.1679,0.1679,0.1679,0.1657,0.1656,0.1622,0.1659,0.1667,0.1663,0.1664,0.1636,0.1633,0.1624,0.1579,0.1578,0.1615,0.1614,0.1612,0.1612,0,0,0,0,0,0,0,0.172,0.1715,0.1663,0.1679,0.1679,0.1682,0.1679,0.165,0.1645,0.1667,0.1668,0.1664,0.1636,0.1626,0.1623,0.1577,0.1615,0.1613,0.1611,0.161,0.1496,0.1495,0,0,0,0,0,0,0.1723,0.1717,0.1664,0.1662,0.1702,0.168,0.1676,0.1663,0.1645,0.1644,0.1663,0.1665,0.163,0.1626,0.1622,0.1571,0.1613,0.161,0.1609,0.1498,0.1496,0.1494,0,0,0,0,0,0,0.1724,0.1718,0.1665,0.169,0.1683,0.1677,0.1662,0.1662,0.1652,0.1642,0.1641,0.1654,0.1631,0.1626,0.1591,0.157,0.1609,0.1606,0.1499,0.1497,0.1495,0.1468,0,0,0,0,0,0,0.1726,0.1718,0.1702,0.1689,0.1682,0.1635,0.1661,0.166,0.1648,0.165,0.1634,0.1632,0.1632,0.1595,0.1589,0.1567,0.1604,0.1501,0.1498,0.1496,0.1471,0.1465,0.146,0,0,0,0,0,0.1729,0.1695,0.1702,0.1695,0.1662,0.1634,0.163,0.1631,0.1646,0.163,0.1623,0.1633,0.1574,0.1591,0.1584,0.1561,0.1503,0.1499,0.1496,0.1473,0.1466,0.1461,0,0,0,0,0,0,0.1705,0.1694,0.17,0.1662,0.1649,0.1637,0.1616,0.1624,0.1605,0.1608,0.161,0.1606,0.157,0.1563,0.1583,0.1519,0.154,0.1536,0.1525,0.1519,0.1514,0.1515,0.1602,0,0,0,0,0,0.1696,0.1675,0.1666,0.1632,0.1626,0.1622,0.161,0.1612,0.1598,0.1593,0.1584,0.1569,0.1548,0.1533,0.1513,0.1471,0.1467,0.1451,0.1446,0.1442,0.1437,0.1414,0.1407,0.1484,0.1484,0.1484,0,0,0.1675,0.1666,0.1653,0.1628,0.1618,0.1595,0.1617,0.1592,0.1575,0.1588,0.1555,0.1549,0.1533,0.1494,0.1477,0.1487,0.1415,0.1438,0.1434,0.1432,0.141,0.1402,0.1396,0.1482,0.1482,0.1482,0,0,0.1626,0.1618,0.1589,0.158,0.1565,0.1563,0.1556,0.1543,0.154,0.1507,0.1517,0.1496,0.1459,0.1447,0.1436,0.1384,0.1391,0.1377,0.1349,0.1326,0.132,0.1315,0.1295,0.1288,0.1373,0.1372,0.1372,0,0.1602,0.1569,0.1573,0.1548,0.1536,0.1549,0.1519,0.1509,0.1488,0.1479,0.1492,0.1445,0.1435,0.1394,0.1381,0.1372,0.1364,0.1378,0.1321,0.1316,0.131,0.1292,0.1284,0.1371,0.1371,0.1371,0.1371,0,0.154,0.1517,0.1496,0.1476,0.1462,0.1435,0.1434,0.142,0.1424,0.142,0.1386,0.1375,0.1353,0.1343,0.1347,0.1302,0.1309,0.1321,0.1342,0.1301,0.1284,0.1277,0.1368,0.1369,0.1369,0.137,0,0,0.1473,0.1458,0.1449,0.1441,0.1426,0.1408,0.1381,0.136,0.1347,0.1333,0.1309,0.1278,0.1289,0.1277,0.1279,0.126,0.1218,0.1274,0.1274,0.1263,0.1167,0.1157,0.1149,0.1224,0.1222,0.1221,0.1168,0,0.1422,0.1376,0.138,0.1336,0.1314,0.1327,0.1303,0.1291,0.1288,0.1268,0.1264,0.1242,0.1259,0.1251,0.1233,0.1227,0.1198,0.1231,0.1201,0.1199,0.1202,0.114,0.1129,0.1079,0.1162,0.116,0.116,0,0.1356,0.134,0.1294,0.1283,0.1275,0.1253,0.1234,0.1216,0.1203,0.1202,0.1189,0.1195,0.1167,0.119,0.1151,0.1173,0.1161,0.1157,0.1155,0.115,0.1176,0.1132,0.1064,0.1056,0.1149,0.115,0.1151,0,0.131,0.1277,0.1246,0.1238,0.1225,0.121,0.1203,0.1192,0.1179,0.1163,0.1154,0.1134,0.1123,0.1107,0.1107,0.1124,0.1068,0.1091,0.1065,0.1065,0.1051,0.1051,0.0977,0.1046,0.1046,0.1046,0.1046,0,0.1251,0.1222,0.1225,0.1205,0.1173,0.1178,0.1146,0.1141,0.1131,0.111,0.112,0.11,0.1102,0.1081,0.1082,0.1049,0.1044,0.1041,0.1041,0.1039,0.104,0.103,0.1033,0.1044,0.1045,0.1045,0.1045,0,0.1193,0.1194,0.116,0.1152,0.1149,0.1125,0.1117,0.1098,0.1097,0.107,0.1064,0.106,0.1037,0.1036,0.1009,0.1009,0.0969,0.0974,0.0973,0.0974,0.0947,0.0949,0.0863,0.0852,0.0929,0.0929,0.0928,0,0.1155,0.1133,0.1123,0.111,0.1103,0.1082,0.107,0.1074,0.106,0.1044,0.1027,0.1005,0.0987,0.0949,0.0944,0.0923,0.0926,0.0898,0.0923,0.0922,0.0924,0.0925,0.0922,0.0892,0.0891,0.089,0.089,0,0.1086,0.1088,0.107,0.1053,0.1038,0.1024,0.1011,0.1,0.1002,0.0986,0.0963,0.095,0.0923,0.09,0.0881,0.0873,0.0881,0.0883,0.0875,0.0872,0.0872,0.087,0.0958,0.0884,0.0884,0.0885,0.0885,0.0885,0.1036,0.1017,0.1007,0.0987,0.0978,0.0966,0.0948,0.0944,0.0925,0.0904,0.0908,0.0882,0.087,0.0844,0.0836,0.0815,0.0824,0.0814,0.0811,0.0808,0.0804,0.0877,0.0811,0.0811,0.0812,0.0812,0.0812,0,0.0966,0.0961,0.0943,0.0925,0.0909,0.092,0.0907,0.0892,0.0869,0.0858,0.0841,0.0814,0.0793,0.0787,0.0766,0.075,0.0754,0.0745,0.0745,0.0743,0.0797,0.0805,0.0742,0.0742,0.0742,0.0742,0.0742,0.0742,0.0928,0.0897,0.0898,0.0862,0.0857,0.0832,0.0823,0.0812,0.0803,0.0773,0.0756,0.0753,0.0743,0.0722,0.0702,0.0701,0.0692,0.0681,0.0681,0.0732,0.0739,0.0745,0.0753,0.068,0.068,0.0628,0.0628,0.0627]},{"header":{"parameterUnit":"m.s-1","parameterCategory":1,"la1":30.2991,"la2":30.254,"lo1":-89.0895,"lo2":-89.0444,"dy":0.0017,"dx":0.0017,"nx":28,"ny":28,"refTime":"2024-02-04T09:00:00:Z","depth":0,"parameterNumber":3,"parameterNumberName":"V-component_of_WINDS"},"data":[0,0,0,0,0,0,0,0,0,0,0,0,0,0,0,0,0,0,0,0,0,0,0,0,0,0,0,0,0,0,0,0,0,0,0,0,0,0,0,0,0,0,0,0,0,0,0,0,0,0,0,0,0,0,0,0,0,0,-5.6017,-5.6018,0,-5.6025,-5.6025,-5.6025,-5.593,-5.5928,-5.5925,-5.5923,-5.593,-5.5933,-5.5935,0,0,0,0,0,0,0,0,0,0,0,0,0,-5.5921,-5.5923,-5.6017,-5.6018,-5.6018,-5.6025,-5.6025,-5.6025,-5.5931,-5.5928,-5.5924,-5.5921,-5.5929,-5.5933,-5.5936,0,0,0,0,0,0,0,0,0,0,0,0,0,-5.5949,-5.5924,-5.6017,-5.5971,-5.5967,-5.6025,-5.6025,-5.6025,-5.5931,-5.5927,-5.5924,-5.592,-5.5928,-5.5932,-5.5936,-5.6038,0,0,-5.5948,-5.595,0,0,0,0,0,0,0,0,-5.5948,-5.5953,-5.5978,-5.5975,-5.597,-5.5973,-5.5994,-5.6029,-5.5932,-5.5945,-5.5923,-5.5918,-5.5948,-5.595,-5.596,-5.6038,-5.6039,-5.5948,-5.5951,-5.5952,-5.5954,0,0,0,0,0,0,0,-5.5946,-5.5952,-5.602,-5.5979,-5.5974,-5.595,-5.595,-5.6,-5.5968,-5.5944,-5.5937,-5.5939,-5.5945,-5.5956,-5.5959,-5.6039,-5.5948,-5.5952,-5.5954,-5.5956,-5.6201,-5.6205,0,0,0,0,0,0,-5.595,-5.5951,-5.602,-5.6021,-5.5949,-5.5955,-5.5955,-5.5976,-5.5967,-5.5962,-5.5942,-5.5934,-5.5951,-5.5955,-5.5959,-5.6077,-5.5952,-5.5956,-5.5958,-5.6197,-5.6202,-5.6206,0,0,0,0,0,0,-5.5948,-5.5957,-5.602,-5.5984,-5.599,-5.5961,-5.5985,-5.5978,-5.5989,-5.5966,-5.596,-5.596,-5.5948,-5.5953,-5.6019,-5.6076,-5.5958,-5.5961,-5.6192,-5.6198,-5.6204,-5.6315,0,0,0,0,0,0,-5.5946,-5.5957,-5.5996,-5.5985,-5.5992,-5.608,-5.5989,-5.5981,-5.5996,-5.5986,-5.5981,-5.5976,-5.5946,-5.6014,-5.6023,-5.608,-5.5965,-5.6187,-5.6195,-5.6202,-5.6307,-5.6325,-5.634,0,0,0,0,0,-5.5943,-5.6027,-5.5998,-5.6007,-5.604,-5.6084,-5.6088,-5.6051,-5.6001,-5.604,-5.6025,-5.5977,-5.6069,-5.6021,-5.6031,-5.609,-5.6183,-5.6192,-5.6202,-5.6299,-5.6321,-5.634,0,0,0,0,0,0,-5.6045,-5.6025,-5.5993,-5.6076,-5.6082,-5.6068,-5.6115,-5.6075,-5.6096,-5.6086,-5.6038,-5.6038,-5.6111,-5.6107,-5.6054,-5.6187,-5.6117,-5.6129,-5.6188,-5.6209,-5.6225,-5.6225,-5.5968,0,0,0,0,0,-5.6077,-5.6115,-5.6095,-5.617,-5.6175,-5.6145,-5.6162,-5.6133,-5.6138,-5.614,-5.613,-5.6136,-5.6166,-5.6187,-5.6214,-5.6305,-5.6303,-5.635,-5.6367,-5.6381,-5.6392,-5.644,-5.6461,-5.6237,-5.6237,-5.6237,0,0,-5.6144,-5.6138,-5.6164,-5.6191,-5.6192,-5.6231,-5.6148,-5.6193,-5.6222,-5.6147,-5.6208,-5.6201,-5.6205,-5.6284,-5.6318,-5.6282,-5.6453,-5.6393,-5.6405,-5.6408,-5.6452,-5.6473,-5.6492,-5.6243,-5.6242,-5.6241,0,0,-5.6287,-5.6286,-5.6348,-5.6351,-5.6354,-5.6333,-5.6349,-5.634,-5.6332,-5.6393,-5.6337,-5.637,-5.6424,-5.6428,-5.6438,-5.6581,-5.6538,-5.6591,-5.668,-5.6727,-5.6744,-5.676,-5.6811,-5.683,-5.6602,-5.6602,-5.6603,0,-5.637,-5.6427,-5.6385,-5.6434,-5.6447,-5.6381,-5.6444,-5.6449,-5.6461,-5.6471,-5.643,-5.6495,-5.6493,-5.6572,-5.6607,-5.6617,-5.6633,-5.6592,-5.6745,-5.676,-5.6774,-5.6822,-5.6841,-5.6609,-5.6608,-5.6607,-5.6607,0,-5.6528,-5.6569,-5.6619,-5.6632,-5.665,-5.6706,-5.6673,-5.6697,-5.6666,-5.6649,-5.6712,-5.6707,-5.6731,-5.6747,-5.6718,-5.6822,-5.68,-5.6753,-5.6682,-5.6803,-5.6847,-5.6865,-5.6618,-5.6616,-5.6614,-5.6612,0,0,-5.6736,-5.6725,-5.6744,-5.6748,-5.6747,-5.6777,-5.683,-5.6853,-5.6874,-5.6884,-5.6927,-5.6973,-5.693,-5.6941,-5.6911,-5.6952,-5.7066,-5.69,-5.69,-5.6931,-5.7181,-5.7216,-5.7238,-5.7037,-5.704,-5.7043,-5.718,0,-5.6874,-5.6963,-5.6927,-5.7019,-5.7056,-5.6993,-5.7039,-5.7043,-5.7028,-5.7057,-5.7041,-5.7075,-5.7015,-5.7021,-5.7059,-5.7044,-5.7115,-5.7034,-5.7076,-5.7078,-5.7077,-5.7261,-5.7298,-5.7428,-5.7197,-5.72,-5.7202,0,-5.7048,-5.7065,-5.7161,-5.7152,-5.7166,-5.7208,-5.7226,-5.7254,-5.7257,-5.7244,-5.7256,-5.7217,-5.7267,-5.7196,-5.7264,-5.721,-5.7225,-5.722,-5.7224,-5.7227,-5.7148,-5.7269,-5.7469,-5.7489,-5.7229,-5.7227,-5.7225,0,-5.719,-5.7236,-5.73,-5.7306,-5.7297,-5.7328,-5.7325,-5.7324,-5.734,-5.7356,-5.7366,-5.7388,-5.74,-5.7418,-5.7385,-5.7337,-5.7459,-5.7385,-5.7449,-5.745,-5.7478,-5.7477,-5.7684,-5.7488,-5.7488,-5.7487,-5.7487,0,-5.7348,-5.7409,-5.7363,-5.7402,-5.7468,-5.7426,-5.7493,-5.7483,-5.7483,-5.7519,-5.7466,-5.7501,-5.7456,-5.7486,-5.7461,-5.7522,-5.7528,-5.7518,-5.7511,-5.7523,-5.7524,-5.7533,-5.7523,-5.7492,-5.7491,-5.749,-5.7489,0,-5.7518,-5.749,-5.7554,-5.754,-5.7538,-5.7588,-5.7576,-5.7611,-5.7593,-5.7639,-5.7647,-5.7619,-5.7652,-5.7621,-5.7653,-5.7636,-5.7717,-5.7696,-5.7716,-5.771,-5.7776,-5.7771,-5.7996,-5.8023,-5.781,-5.7812,-5.7814,0,-5.7621,-5.7667,-5.7657,-5.7677,-5.7678,-5.7712,-5.7728,-5.7687,-5.7706,-5.7712,-5.7747,-5.7775,-5.7796,-5.7851,-5.7834,-5.7857,-5.7837,-5.7914,-5.784,-5.7851,-5.7838,-5.7836,-5.784,-5.793,-5.7932,-5.7934,-5.7936,0,-5.7807,-5.7791,-5.7816,-5.7836,-5.7857,-5.7871,-5.7881,-5.79,-5.7859,-5.7883,-5.7915,-5.7931,-5.7963,-5.7992,-5.801,-5.8007,-5.7965,-5.7959,-5.7975,-5.7988,-5.7998,-5.7993,-5.7757,-5.7954,-5.7952,-5.7951,-5.795,-5.7949,-5.7947,-5.7984,-5.7983,-5.8013,-5.8016,-5.8026,-5.8058,-5.8044,-5.8071,-5.8093,-5.8068,-5.8108,-5.8109,-5.8128,-5.8131,-5.8161,-5.8129,-5.8153,-5.8158,-5.8165,-5.8175,-5.7993,-5.8165,-5.8164,-5.8164,-5.8163,-5.8163,0,-5.813,-5.8126,-5.8154,-5.8169,-5.8192,-5.815,-5.8158,-5.8181,-5.8217,-5.8221,-5.8242,-5.828,-5.8307,-5.8291,-5.8315,-5.8342,-5.8324,-5.835,-5.8348,-5.8348,-5.8202,-5.8186,-5.8365,-5.8365,-5.8365,-5.8365,-5.8365,-5.8365,-5.8228,-5.8289,-5.8272,-5.8333,-5.8329,-5.8368,-5.8376,-5.8385,-5.8388,-5.8432,-5.8455,-5.8444,-5.844,-5.8463,-5.8486,-5.8481,-5.8492,-5.8526,-5.8513,-5.8378,-5.8358,-5.8339,-5.8323,-5.8528,-5.8529,-5.8656,-5.8657,-5.8658]}]]